Regional Weather Roundup
Issued by NWS

Home | Current Version | Previous Version | Text Only | Print | Product List | Glossary Off
Versions: 1 2 3 4 5 6 7 8 9 10 11 12 13 14 15 16 17 18 19 20 21 22 23 24 25 26 27 28 29 30 31 32 33 34 35 36 37 38 39 40 41 42 43 44 45 46 47 48 49 50

000
ASUS43 KIND 112309
RWRIN

WEATHER ROUNDUP FOR INDIANA
NATIONAL WEATHER SERVICE INDIANAPOLIS IN
600 PM EST MON DEC 11 2017

NOTE: "FAIR" INDICATES FEW OR NO CLOUDS BELOW 12,000 FEET WITH NO
SIGNIFICANT WEATHER AND/OR OBSTRUCTIONS TO VISIBILITY.

* - STATION DOES NOT REPORT WEATHER SUCH AS PRECIPITATION OR FOG.

+ - STATION NOT QUALITY CONTROLLED BY THE NATIONAL WEATHER SERVICE.
    USE DATA WITH CAUTION...ESPECIALLY DEWPOINT AND RELATIVE
    HUMIDITY OBSERVATIONS.

INZ001>003-010>013-019-020-120000-
NORTHWEST INDIANA

CITY           SKY/WX    TMP DP  RH WIND       PRES   REMARKS
GARY /AIRPORT/ CLOUDY    36  25  64 CALM      29.71R
KNOX *+        CLOUDY    32  28  86 E7        29.69S WCI  26
LA PORTE +     CLOUDY    30  25  83 E6        29.70S WCI  24
MICHIGAN CITY+ CLOUDY    32  27  80 CALM      29.72R
MONTICELLO +   CLOUDY    36  26  65 E3        29.66S
RENSSELAER +   PTCLDY    36  23  60 E9        29.66S WCI  29
VALPARAISO     CLOUDY    32  26  78 E6        29.70R WCI  26

$$

LMZ046-743>745-120000-
SOUTHERN LAKE MICHIGAN

STATION/POSITION TIME  TEMP    WIND        PRES    WAVE
                       AIR SEA DIR/SP/G            HT
                 (UTC) (F)     (DEG/KT/KT) (MB)    (FT)
BURNS HARBOR     2240   35      60/  6/  7 1006.8R
MICHIGAN CITY    2240   33      50/  5/  6   N/A

$$

INZ004-005-014>016-021>024-120000-
NORTH CENTRAL INDIANA

CITY           SKY/WX    TMP DP  RH WIND       PRES   REMARKS
ELKHART        CLOUDY    32  27  80 CALM      29.72R
GOSHEN         PTCLDY    32  26  78 SE5       29.70S WCI  27
LOGANSPORT +   CLOUDY    34  28  80 E9        29.68S WCI  26
PERU/GRISSOM   CLOUDY    36  29  77 E9        29.67S WCI  29
ROCHESTER +    CLOUDY    32  30  93 E6        29.69F WCI  26
SOUTH BEND     CLOUDY    31  26  82 SE8       29.72R WCI  23
WARSAW +       PTCLDY    32  27  80 SE5       29.70S WCI  27

$$

INZ006>009-017-018-025>027-120000-
NORTHEAST INDIANA

CITY           SKY/WX    TMP DP  RH WIND       PRES   REMARKS
AUBURN +       CLOUDY    32  27  80 SE3       29.73R
FORT WAYNE     CLOUDY    33  27  78 SE6       29.72F WCI  28
HUNTINGTON +   CLOUDY    33  28  82 SE6       29.70S WCI  27
KENDALLVILLE + PTCLDY    31  26  81 SE8       29.71S WCI  24

$$

INZ028-029-035-036-043>045-051>053-120000-
WEST CENTRAL INDIANA

CITY           SKY/WX    TMP DP  RH WIND       PRES   REMARKS
CRAWFORDSVL +  CLOUDY    40  29  66 SW10      29.66R WCI  33
GREENCASTLE +  PTCLDY    45  30  57 W6        29.68R
LAFAYETTE      CLOUDY    42  29  59 W5        29.65R
TERRE HAUTE    CLEAR     49  23  36 W21G30    29.71R HAZE

$$

INZ030>032-037>040-046>048-054>057-064-065-120000-
CENTRAL INDIANA

CITY           SKY/WX    TMP DP  RH WIND       PRES   REMARKS
COLUMBUS       CLEAR     41  25  52 S8        29.70F
FRANKFORT +    CLOUDY    37  28  69 S7        29.66S WCI  32
INDIANAPOLIS   MOCLDY    43  28  55 S8        29.66F
-EAGLE CREEK   CLOUDY    44  27  51 SE5       29.65F
KOKOMO +       CLOUDY    35  29  78 E7        29.68S WCI  29
MARION +       CLOUDY    35  29  77 SE9       29.69S WCI  28
MT COMFORT *+  MOCLDY    39  32  75 S7        29.67S WCI  34
SHELBYVILLE    CLOUDY    39  26  59 SE9       29.68F WCI  33
ZIONSVILLE +   PTCLDY    37  27  68 SE6       29.66F WCI  32

$$

INZ033-034-041-042-049-050-058-059-120000-
EAST CENTRAL INDIANA

CITY           SKY/WX    TMP DP  RH WIND       PRES   REMARKS
MUNCIE         CLOUDY    38  28  67 SE8       29.68F WCI  32
RICHMOND +     CLOUDY    32  30  93 SE10      29.70F WCI  24

$$

INZ060-061-067>069-081>083-085>088-120000-
SOUTHWEST INDIANA

CITY           SKY/WX    TMP DP  RH WIND       PRES   REMARKS
EVANSVILLE     CLOUDY    52  30  43 W9        29.77R
HUNTINGBURG +  CLOUDY    49  32  52 SW10      29.75S
WASHINGTON +   CLEAR     49  28  44 SW12      29.71R

$$

INZ062-063-066-070>080-084-089>092-120000-
SOUTH CENTRAL AND SOUTHEAST INDIANA

CITY           SKY/WX    TMP DP  RH WIND       PRES   REMARKS
BEDFORD +      PTCLDY    48  27  43 S9        29.69F
BLOOMINGTON    CLEAR     49  28  44 SW12      29.68S
MADISON *+     CLOUDY    45  28  53 S7        29.74F
NORTH VERNON + PTCLDY    43  28  56 S7        29.71F
SEYMOUR +      CLOUDY    45  28  53 S5        29.71F

$$





USA.gov is the U.S. government's official web portal to all federal, state and local government web resources and services.